STARLINK-1309, 45414

Orbit data source: Space-Track

STARLINK-1309, 45414 is a payload satellite owned by SpaceX/Seattle (US) in LEO that was launched on Wed, 18 Mar 2020 UTC via an FALCON 9 launch vehicle from the Air Force Eastern Test Range (AFETR). Payload-class satellites include a variety of spacecraft equipped with specific instruments for various scientific and technological missions. These include communications satellites like Starlink; space stations such as the ISS; scientific satellites like the Hubble; Earth observation satellites from companies like Planet Labs, Umbra, and HawkEye 360; GPS; miniature CubeSats for education and research; and military/defense satellites.

Loading next visibility...
Identifier
45414, 2020-019BG
Orbit
LEO
Country
Flag of USUS
Related business
Manufacturer
SpaceX/Seattle
Mission
Operational Commercial Communications
Bus & Motor
STARLINK, Unknown motor
Mass
260 kg wet, ~248 kg dry
Launch date (UTC)
2020-03-18 (5 years ago)
Launch vehicle
FALCON 9
Launch site
Air Force Eastern Test Range (AFETR)
Object type
Payload
Rocket body
Debris
Shape & HBR
Box + 1 Pan, 4.4 m
Radar Cross Section
13.562 m², Large (>1 m²)

Expand to show TLE details & history
Last TLE update: 9 hours ago

TLE from 9 hours ago
0 STARLINK-1309
1 45414U 20019BG  25259.23560910  .00002262  00000-0  17064-3 0  9992
2 45414  53.0521 199.7735 0001500  93.3378 266.7783 15.06406923303557
Epoch: 2025-09-16T05:39Z
TLE epoch observation values (Epoch: 2025-09-16T05:39:16.626Z)
Latitude
0.00003°
Longitude
119.52543°
Altitude
548.128 km
Speed
7.589 km/s
True Right ascension
13h 19m 05s
True Declination
0° 00' 00"
Sunlit
Object was in daylight at epoch
Visualization orbit readout
Latitude
Unknown
Longitude
Unknown
Altitude
Unknown
Speed
Unknown
Apparent Right ascension
Unknown
Apparent Declination
Unknown
Sunlit
N/A
Visualization observer readout
Local Sidereal Time
07:49:12
Azimuth
Unknown
Elevation
Unknown
Doppler factor
Unknown
Orbital elements
Apogee altitude
548.5 km
Perigee altitude
546.423 km
Semi-major axis
6,925.598 km
Eccentricity
0.00015
Inclination
53.0521°
RAAN
199.7735°
Arg. of periapsis
93.3378°
True anomaly
266.76114°
Mean anomaly
266.7783°
Eccentric anomaly
266.76972°
Mean motion
3.7658 °/min
Orbital period
95.6 mins
BSTAR
0.00017064
Loading maneuver chart data...
Computing Atmospheric mass density...
Loading historical data...
Loading historical data...
Loading historical data...
Loading historical data...
Loading historical data...
Loading historical data...
Loading historical data...

Documentation

Showing up to 5 results
|